sat.trackr.live / text

‹ back to catalog

ONEWEB-0569

NORAD 55148 · 2023-004J

PAYLOAD ACTIVE UNKNOWN

§ Identity

Operator
Country
UK
Launch date
2023-01-10
Launch site
AFETR
Launch vehicle
Mass (kg)
RCS (m²)

Purposes: comms

External: N2YO · Heavens-Above · Gunter

§ Orbital elements

Epoch: 2026-09-19T22:12:35.328096Z

Period
109.63 min
Inclination
87.8918°
Eccentricity
0.0001382
Mean motion
13.13470679 rev/d
Perigee alt
1,208.7 km
Apogee alt
1,210.8 km
Semi-major
7,587.9 km
B*
6.4148e-5
RAAN
301.3760°
Arg perigee
68.8894°
Mean anomaly
291.2383°
Rev number
18,261

§ Raw data

ONEWEB-05691 55148U 23004J   26262.92540889  .00000036  00000+0  64148-4 0  99902 55148  87.8918 301.3760 0001382  68.8894 291.2383 13.13470679182610

JSON: /api/v1/satellites/55148 · /tle

For live sub-satellite position, see the globe view (requires WebGL).

§ Visibility from observer

Set your observer location to see the next 7 days of passes ≥ 10°. The values pass through the URL so the page stays shareable.

No JS? Fill the form by hand. The geolocation button needs JavaScript.